User: anonymous   Login
Location: Noordwijk
(52.2400°N, 4.4500°E)
Time: 12:22:09
(UTC+00:00)
Language:

NANOSAT C BR1 - Orbit

View from above orbital plane
View from above orbital plane
View from above satellite
View from above satellite

Ground track
Ground track

The orbit data is extracted from the following two-line orbital elements,

1 40024U 14033Q   22341.61888325  .00004160  00000-0  40679-3 0  9994
2 40024  98.0062 287.7022 0010774 188.2351 171.8693 14.92872514459806
Epoch (UTC): 07 December 2022 14:51:11
Eccentricity: 0.0010774
inclination: 98.0062°
perigee height: 581 km
apogee height: 596 km
right ascension of ascending node: 287.7022°
argument of perigee: 188.2351°
revolutions per day: 14.92872514
mean anomaly at epoch: 171.8693°
orbit number at epoch: 45980

The dashed part of the orbit path shows where the satellite is in the earth's shadow,  

DLR